RADUGA 9 [-]

Last updated on June 27, 2019, 3:44 a.m. UTC

1 12618U 81069A   19177.50594669  .00000100  00000-0  00000+0 0  9991
2 12618  12.1834 319.9931 0003363  58.1794 129.8280  1.00206512102788
UTC
Height (km)
Latitude
Longitude
Inclination
Orbital Period
UTC large
Height (km)
Speed (km/s)
/
Latitude / Longitude
Inclination (degrees)
Orbital Period (minutes)
Azimuth
Elevation
Range (km)
Doppler Factor
iOS Compass Heading
iOS Angle

Next 30 passes for location: Hong Kong

Rise time Rise Azimuth (degrees) Set time Set Azimuth (degrees) Duration Max altitude (degrees)

No matching passes for this satellites